Weather History for Lihue, HI

Change the Weather History Date:

Sunday, November 17, 2013

  Actual Average Record
Temperature  
Mean Temperature 76 °F 76 °F  
Max Temperature 82 °F 81 °F 87 °F (1997)
Min Temperature 69 °F 71 °F 64 °F (1950)
Degree Days  
Heating Degree Days 0 0  
Month to date heating degree days 0 0  
Since 1 July heating degree days 0 0  
Cooling Degree Days 11 11  
Month to date cooling degree days 168 194  
Year to date cooling degree days 3314 3561  
Growing Degree Days 25 (Base 50)    
Moisture  
Dew Point 70 °F    
Average Humidity 83    
Maximum Humidity 100    
Minimum Humidity 65    
Precipitation  
Precipitation T in 0.15 in 3.23 in (1990)
Month to date precipitation 3.08 2.58  
Year to date precipitation 30.64 29.97  
Snow  
Snow 0.00 in - - ()
Month to date snowfall 0.0  
Since 1 July snowfall 0.0  
Since 1 September snowfall 0.0  
Snow Depth 0.00 in    
Sea Level Pressure  
Sea Level Pressure 29.96 in    
Wind  
Wind Speed 7 mph (South)    
Max Wind Speed 8 mph    
Max Gust Speed 8 mph    
Visibility 10 miles    
Events      
T = Trace of Precipitation, MM = Missing Value Source: NWS Daily Summary

Daily Weather History Graph

Daily Weather History Graph

Search for Another Location

Airport:

Trip Planner

Search our weather history database for the weather conditions in past years. The results will help you decide how hot, cold, wet, or windy it might be!

Date:

Astronomy

Nov. 17, 2013 Rise Set
Actual Time 6:50 AM HST 5:53 PM HST
Civil Twilight 6:27 AM HST 6:17 PM HST
Nautical Twilight 6:00 AM HST 6:44 PM HST
Astronomical Twilight 5:33 AM HST 7:11 PM HST
Moon 6:19 PM HST (11/17) 6:56 AM HST (11/17)
Length of Visible Light 11h 50m
Length of Day
11h 03m
Full, 100% of the Moon is Illuminated
Nov 17
Full
Nov 25
Last Quarter
Dec 2
New
Dec 9
First Quarter
Dec 16
Full

Hourly Weather History & Observations

Time (HST) Temp. Heat Index Dew Point Humidity Pressure Visibility Wind Dir Wind Speed Gust Speed Precip Events Conditions
12:53 AM 73.9 °F - 71.1 °F 91% 30.02 in 10.0 mi ENE 12.7 mph - N/A   Partly Cloudy
1:53 AM 73.9 °F - 70.0 °F 87% 30.00 in 10.0 mi East 11.5 mph - N/A   Clear
2:53 AM 73.9 °F - 70.0 °F 87% 29.98 in 10.0 mi SSE 6.9 mph - N/A   Mostly Cloudy
3:33 AM 73.4 °F - 71.6 °F 94% 29.98 in 10.0 mi Calm Calm - N/A   Overcast
3:53 AM 73.9 °F - 70.0 °F 87% 29.97 in 10.0 mi East 10.4 mph - N/A   Overcast
4:33 AM 73.4 °F - 69.8 °F 88% 29.97 in 10.0 mi East 8.1 mph - N/A   Overcast
4:53 AM 75.0 °F - 70.0 °F 84% 29.96 in 10.0 mi ESE 9.2 mph - N/A   Overcast
5:04 AM 73.4 °F - 69.8 °F 88% 29.96 in 10.0 mi East 9.2 mph - N/A   Overcast
5:24 AM 73.4 °F - 69.8 °F 88% 29.96 in 10.0 mi ESE 6.9 mph - N/A   Mostly Cloudy
5:35 AM 73.4 °F - 69.8 °F 88% 29.96 in 10.0 mi ESE 5.8 mph - N/A   Mostly Cloudy
5:42 AM 71.6 °F - 69.8 °F 94% 29.96 in 10.0 mi Calm Calm - N/A   Scattered Clouds
5:53 AM 72.0 °F - 70.0 °F 93% 29.95 in 10.0 mi SW 5.8 mph - N/A   Mostly Cloudy
6:53 AM 70.0 °F - 69.1 °F 97% 29.96 in 10.0 mi SW 4.6 mph - N/A   Partly Cloudy
7:53 AM 72.0 °F - 71.1 °F 97% 29.97 in 10.0 mi West 6.9 mph - N/A   Overcast
8:53 AM 75.0 °F - 72.0 °F 90% 30.00 in 10.0 mi West 3.5 mph - N/A   Overcast
9:53 AM 78.1 °F - 71.1 °F 79% 30.01 in 10.0 mi Calm Calm - N/A   Mostly Cloudy
10:15 AM 78.8 °F - 71.6 °F 78% 30.01 in 10.0 mi South 5.8 mph - N/A   Mostly Cloudy
10:26 AM - - - N/A% 30.01 in 10.0 mi SSE 4.6 mph - N/A   Mostly Cloudy
10:53 AM 80.6 °F 83.9 °F 69.8 °F 70% 29.99 in 10.0 mi South 8.1 mph - N/A   Partly Cloudy
11:53 AM 82.4 °F 86.3 °F 70.0 °F 66% 29.98 in 10.0 mi SSE 9.2 mph - N/A   Mostly Cloudy
12:53 PM 82.4 °F 86.3 °F 70.0 °F 66% 29.95 in 10.0 mi South 10.4 mph - N/A   Scattered Clouds
1:53 PM 80.6 °F 83.9 °F 69.8 °F 70% 29.92 in 10.0 mi South 10.4 mph - N/A   Clear
2:53 PM 80.6 °F 83.9 °F 69.8 °F 70% 29.91 in 10.0 mi SSE 10.4 mph - N/A   Clear
3:53 PM 80.6 °F 84.7 °F 72.0 °F 75% 29.92 in 10.0 mi South 9.2 mph - N/A   Clear
4:53 PM 78.8 °F - 71.1 °F 77% 29.93 in 10.0 mi South 6.9 mph - N/A   Partly Cloudy
5:53 PM 77.0 °F - 69.8 °F 78% 29.93 in 10.0 mi West 3.5 mph - 0.00 in   Overcast
6:53 PM 73.9 °F - 71.1 °F 91% 29.95 in 10.0 mi NNW 6.9 mph - N/A   Clear
7:53 PM 73.0 °F - 71.1 °F 93% 29.96 in 10.0 mi NW 6.9 mph - N/A   Mostly Cloudy
8:53 PM 73.0 °F - 71.1 °F 93% 29.96 in 10.0 mi Calm Calm - N/A   Scattered Clouds
9:53 PM 72.0 °F - 70.0 °F 93% 29.96 in 10.0 mi West 4.6 mph - N/A   Partly Cloudy
10:53 PM 70.0 °F - 69.1 °F 97% 29.95 in 10.0 mi West 6.9 mph - N/A   Unknown
11:19 PM 71.6 °F - 69.8 °F 94% 29.95 in 10.0 mi West 5.8 mph - N/A   Mostly Cloudy
11:41 PM 71.6 °F - 69.8 °F 94% 29.95 in 10.0 mi West 6.9 mph - N/A   Scattered Clouds